Regional Weather Roundup
Issued by NWS

Home | Current Version | Previous Version | Text Only | Print | Product List | Glossary On
Versions: 1 2 3 4 5 6 7 8 9 10 11 12 13 14 15 16 17 18 19 20 21 22 23 24 25 26 27 28 29 30 31 32 33 34 35 36 37 38 39 40 41 42 43 44 45 46 47 48 49 50
000
ASUS44 KJAN 241310
RWRMS

MISSISSIPPI HOURLY WEATHER ROUNDUP
NATIONAL WEATHER SERVICE JACKSON MS
800 AM CDT THU JUL 24 2014

NOTE: "FAIR: INDICATES FEW OR NO CLOUDS BELOW 12,000 FEET WITH NO
SIGNIFICANT WEATHER AND/OR OBSTRUCTIONS TO VISIBILITY.

MSZ001>002-007>008-010>013-018>021-025>028-034>036-241400-
NORTHWEST MISSISSIPPI

CITY           SKY/WX    TMP DP  RH WIND       PRES   REMARKS
CLARKSDALE     FAIR      72  72 100 CALM      30.06R
CLEVELAND      FAIR      72  72  99 N6        30.04R
GREENWOOD      FOG       72  71  97 N6        30.03R VSB 1/4
GREENVILLE     MOSUNNY   74  71  91 N7        30.03R
GRENADA        FAIR      72  70  94 CALM      30.03S
OLIVE BRANCH   MOSUNNY   70  70 100 N8        30.06R
OXFORD         FAIR      68  68 100 CALM      30.06R
TUNICA         SUNNY     72  70  94 N6        30.06S
$$

MSZ003>006-009-014>017-022>024-029>033-037>039-241400-
NORTHEAST MISSISSIPPI

CITY           SKY/WX    TMP DP  RH WIND       PRES   REMARKS
BELMONT        CLOUDY    69  69  99 CALM      30.04R FOG
COLUMBUS AFB   CLOUDY    72  72 100 NW2       30.03R FOG
CORINTH        CLOUDY    72  68  88 N6        30.04R FOG
GOLDN TRIANGLE FOG       72  68  88 CALM      30.02R VSB 1/2
STARKVILLE     FAIR      72  70  94 NW3       30.02R
TUPELO         MOSUNNY   73  68  84 N5        30.03R
$$

MSZ040-058-241400-
CENTRAL MISSISSIPPI

CITY           SKY/WX    TMP DP  RH WIND       PRES   REMARKS
JACKSON INTL   MOSUNNY   76  72  87 S3        30.02R
JACKSON HAWKNS SUNNY     76  71  85 MISG      30.02R
MERIDIAN KEY   MOSUNNY   74  71  91 CALM      30.03R FOG
MERIDIAN NAS   MOSUNNY   73  70  90 W3        30.02S
RAYMOND        FAIR      75  72  88 CALM      30.02S HAZE
VICKSBURG      PTSUNNY   75  73  93 NW3       30.02S
$$

MSZ059>079-241400-
SOUTH MISSISSIPPI

CITY           SKY/WX    TMP DP  RH WIND       PRES   REMARKS
BROOKHAVEN     FAIR      75  73  94 CALM      30.05R FOG
COLUMBIA       FAIR      73  73 100 CALM      30.02R FOG
HATTIESBURG    SUNNY     75  72  90 CALM      30.04R FOG
MCCOMB         SUNNY     75  71  87 CALM      30.03R
NATCHEZ        CLOUDY    72  70  94 CALM      30.03S
PINE BELT      SUNNY     73  70  88 CALM      30.04S
$$

MSZ080>082-241400-
COASTAL MISSISSIPPI

CITY           SKY/WX    TMP DP  RH WIND       PRES   REMARKS
BILOXI         LGT RAIN  77  75  94 S3        30.02R
PASCAGOULA     SUNNY     77  73  87 CALM      30.02R
GULFPORT       SUNNY     81  73  76 E3        30.01R
$$


USA.gov is the U.S. government's official web portal to all federal, state and local government web resources and services.